Location: Unspecified
(33.6682°S, 0.0000°E)
Time: 11:13:22
(UTC+00:00)

Vanguard 1 - Pass Details

Date: 27 June 2019
Orbit: 653 x 3830 km, 34.3° (Epoch: 15 July)

Event Time Altitude Azimuth Distance (km) Brightness Sun altitude
Rises 17:12:50 0° 260° (W) 4,233 14.3 -3.0°
Reaches altitude 10° 17:15:07 10° 261° (W) 3,535 13.9 -3.5°
Maximum altitude 17:24:39 85° 347° (NNW) 2,158 11.8 -5.3°
Drops below altitude 10° 17:42:54 10° 72° (ENE) 6,290 13.7 -8.7°
Sets 17:48:34 0° 72° (ENE) 7,632 14.1 -9.8°
